Location: Katherine
(14.4670°S, 132.2670°E)
Time: 14:46:53
(UTC+09:30)

ISS - Visible Passes

Search period start: 22 June 2018 00:00
Search period end: 02 July 2018 00:00
Orbit: 402 x 406 km, 51.6° (Epoch: 22 June)

Date Brightness Start Highest point End Pass type
(mag) Time Alt. Az. Time Alt. Az. Time Alt. Az.
22 Jun -2.3 05:19:56 36° E 05:19:56 36° E 05:22:14 10° NE visible
23 Jun -1.8 06:03:02 15° NW 06:03:02 15° NW 06:05:00 10° NNW visible
23 Jun -1.4 19:17:07 10° W 19:19:28 18° SW 19:21:50 10° S visible
24 Jun -0.9 05:13:25 13° NNE 05:13:25 13° NNE 05:13:51 10° NNE visible
